Bremerton, WA

5:51 PM PST on December 13, 2019 (GMT -0800)
Bremerton National

Weather History for KPWT - August, 2019

Change the Weather History Date:

Sunday, August 11, 2019

  Actual Average Record
Temperature  
Mean Temperature 64 °F -  
Max Temperature 73 °F 75 °F 96 °F (2014)
Min Temperature 57 °F 50 °F 42 °F (2011)
Degree Days  
Heating Degree Days 1    
Growing Degree Days 14 (Base 50)    
Moisture  
Dew Point 57 °F    
Average Humidity 84    
Maximum Humidity 100    
Minimum Humidity 59    
Precipitation  
Precipitation 0.00 in - - ()
Sea Level Pressure  
Sea Level Pressure 30.11 in    
Wind  
Wind Speed 5 mph (SSW)    
Max Wind Speed 18 mph    
Max Gust Speed 20 mph    
Visibility 9 miles    
Events      
Averages and records for this station are not official NWS values.
T = Trace of Precipitation, MM = Missing Value Source: NWS Daily Summary

Daily Weather History Graph

Daily Weather History Graph

Search for Another Location

Airport or City:

Astronomy

Aug. 11, 2019 Rise Set
Actual Time 6:01 AM PDT 8:29 PM PDT
Civil Twilight 5:27 AM PDT 9:04 PM PDT
Nautical Twilight 4:43 AM PDT 9:47 PM PDT
Astronomical Twilight 3:54 AM PDT 10:36 PM PDT
Moon 6:24 PM PDT (8/11) 2:17 AM PDT (8/11)
Length of Visible Light 15h 36m
Length of Day
14h 28m
Waxing Gibbous, 87% of the Moon is Illuminated
Aug 11
Waxing Gibbous
Aug 15
Full
Aug 23
Last Quarter
Aug 30
New
Sep 5
First Quarter

Hourly Weather History & Observations

Time (PDT) Temp. Dew Point Humidity Pressure Visibility Wind Dir Wind Speed Gust Speed Precip Events Conditions
12:08 AM 57.2 °F 57.2 °F 100% 30.01 in 10.0 mi Calm Calm - N/A   Mostly Cloudy
12:56 AM 59.0 °F 55.9 °F 90% 30.06 in 10.0 mi East 4.6 mph - N/A   Overcast
1:56 AM 59.0 °F 55.9 °F 90% 30.06 in 10.0 mi Calm Calm - N/A   Scattered Clouds
2:56 AM 57.9 °F 55.9 °F 93% 30.07 in 10.0 mi South 4.6 mph - N/A   Overcast
3:43 AM 57.2 °F 55.4 °F 94% 30.03 in 10.0 mi South 4.6 mph - N/A   Mostly Cloudy
3:53 AM 57.2 °F 55.4 °F 94% 30.03 in 7.0 mi South 4.6 mph - N/A   Scattered Clouds
3:56 AM 57.0 °F 55.9 °F 96% 30.07 in 8.0 mi South 3.5 mph - N/A   Scattered Clouds
4:04 AM 57.2 °F 55.4 °F 94% 30.03 in 10.0 mi South 3.5 mph - N/A   Mostly Cloudy
4:49 AM 57.2 °F 57.2 °F 100% 30.04 in 8.0 mi Calm Calm - N/A   Overcast
4:56 AM 57.0 °F 57.0 °F 100% 30.08 in 5.0 mi Calm Calm - N/A   Overcast
5:56 AM 57.9 °F 57.0 °F 97% 30.10 in 7.0 mi SSW 4.6 mph - N/A   Overcast
6:56 AM 57.9 °F 57.0 °F 97% 30.11 in 7.0 mi SSW 5.8 mph - N/A   Overcast
7:15 AM 57.2 °F 57.2 °F 100% 30.07 in 10.0 mi South 3.5 mph - N/A   Overcast
7:43 AM 57.2 °F 57.2 °F 100% 30.08 in 9.0 mi SSW 5.8 mph - N/A   Overcast
7:56 AM 57.9 °F 57.0 °F 97% 30.13 in 6.0 mi South 6.9 mph - N/A   Overcast
8:34 AM 57.2 °F 57.2 °F 100% 30.09 in 10.0 mi Variable 4.6 mph - N/A   Overcast
8:56 AM 57.9 °F 57.0 °F 97% 30.14 in 10.0 mi SSW 6.9 mph - N/A   Overcast
9:56 AM 60.1 °F 55.9 °F 86% 30.14 in 10.0 mi SSW 5.8 mph - N/A   Overcast
10:56 AM 62.1 °F 57.0 °F 84% 30.15 in 10.0 mi SSW 3.5 mph - N/A   Overcast
11:08 AM 62.6 °F 57.2 °F 82% 30.10 in 10.0 mi SW 5.8 mph - N/A   Overcast
11:56 AM 66.0 °F 57.0 °F 73% 30.15 in 10.0 mi SSE 3.5 mph - N/A   Mostly Cloudy
12:39 PM 69.8 °F 57.2 °F 64% 30.11 in 10.0 mi SSW 9.2 mph - N/A   Mostly Cloudy
12:56 PM 70.0 °F 57.9 °F 65% 30.15 in 7.0 mi SW 5.8 mph - N/A   Mostly Cloudy
1:15 PM 69.8 °F 57.2 °F 64% 30.11 in 10.0 mi South 9.2 mph - N/A   Mostly Cloudy
1:56 PM 71.1 °F 57.0 °F 61% 30.15 in 10.0 mi SW 6.9 mph - N/A   Mostly Cloudy
2:56 PM 71.1 °F 55.9 °F 59% 30.15 in 10.0 mi SW 18.4 mph - N/A   Overcast
3:56 PM 71.1 °F 55.9 °F 59% 30.14 in 10.0 mi SW 16.1 mph - N/A   Mostly Cloudy
4:56 PM 70.0 °F 57.0 °F 63% 30.15 in 10.0 mi SW 17.3 mph - N/A   Scattered Clouds
5:56 PM 69.1 °F 59.0 °F 70% 30.15 in 10.0 mi SW 12.7 mph - N/A   Clear
6:56 PM 69.1 °F 57.9 °F 68% 30.15 in 10.0 mi SSW 15.0 mph 19.6 mph N/A   Clear
7:56 PM 66.0 °F 57.9 °F 75% 30.17 in 10.0 mi SW 11.5 mph - N/A   Scattered Clouds
8:56 PM 64.9 °F 57.0 °F 75% 30.17 in 10.0 mi SW 6.9 mph - N/A   Partly Cloudy
10:56 PM 61.0 °F 57.0 °F 87% 30.18 in 10.0 mi Calm Calm - N/A   Clear
11:56 PM 57.0 °F 55.0 °F 93% 30.18 in 10.0 mi Calm Calm - N/A   Clear